This is the latest recevied weather packets stored in our database for station/object KO4T-4. If no packets are shown the sender has not sent any weather packets the latest 10 day(s).
| Time | Temp. | Humidity | Pressure | Rain* | Wind** | Luminosity | Snow |
|---|---|---|---|---|---|---|---|
| 1777842604 | 21.11° C | 35% | 1014.9 hPa | 0 mm | - | - | - |
| 1777842303 | 20.56° C | 32% | 1014.8 hPa | 0 mm | - | - | - |
| 1777842004 | 21.11° C | 31% | 1014.9 hPa | 0 mm | - | - | - |
| 1777841704 | 20.56° C | 34% | 1015 hPa | 0 mm | - | - | - |
| 1777841404 | 20.56° C | 33% | 1014.9 hPa | 0 mm | - | - | - |
| 1777841104 | 20° C | 36% | 1015.1 hPa | 0 mm | - | - | - |
| 1777840803 | 20° C | 34% | 1015.2 hPa | 0 mm | - | - | - |
| 1777840504 | 20° C | 35% | 1015.2 hPa | 0 mm | - | - | - |
| 1777840204 | 20° C | 38% | 1015.3 hPa | 0 mm | - | - | - |
| 1777839904 | 20° C | 34% | 1015.3 hPa | 0 mm | - | - | - |
| 1777839604 | 20.56° C | 35% | 1015.4 hPa | 0 mm | - | - | - |
| 1777839304 | 20° C | 37% | 1015.5 hPa | 0 mm | - | - | - |
| 1777839004 | 20° C | 36% | 1015.5 hPa | 0 mm | - | - | - |
| 1777838704 | 20° C | 35% | 1015.7 hPa | 0 mm | - | - | - |
| 1777838404 | 20° C | 34% | 1015.6 hPa | 0 mm | - | - | - |
| 1777838104 | 20° C | 35% | 1015.8 hPa | 0 mm | - | - | - |
| 1777837804 | 20° C | 35% | 1015.9 hPa | 0 mm | - | - | - |
| 1777837503 | 20° C | 34% | 1015.9 hPa | 0 mm | - | - | - |
| 1777837204 | 20° C | 35% | 1015.9 hPa | 0 mm | - | - | - |
| 1777836904 | 19.44° C | 36% | 1016 hPa | 0 mm | - | - | - |
| 1777836604 | 20° C | 34% | 1016 hPa | 0 mm | - | - | - |
| 1777836304 | 19.44° C | 39% | 1016.1 hPa | 0 mm | - | - | - |
| 1777836005 | 18.89° C | 37% | 1016.1 hPa | 0 mm | - | - | - |
| 1777835704 | 18.89° C | 36% | 1016.3 hPa | 0 mm | - | - | - |
| 1777835404 | 19.44° C | 36% | 1016.3 hPa | 0 mm | - | - | - |
* Rain latest hour (hover to see other rain measurements)
** Current wind speed in m/s (hover to see current wind gust speed)